{"data":{"norad_id":66500,"intl_designator":"2025-263R","name":"STARLINK-35894","alt_names":[],"object_type":"PAYLOAD","status":"ACTIVE","operator":null,"country":"US","launch_date":"2025-11-15","launch_site_code":"AFETR","launch_vehicle":null,"mission":null,"orbit_class":"UNKNOWN","rcs_meters":null,"size_class":null,"mass_kg":null,"dimensions":null,"purposes":["comms"],"wikipedia_slug":null,"has_3d_model":false,"image_url":null,"decayed_at":null,"tle_current":{"epoch":"2026-05-24T19:51:59.045472Z","epoch_age_seconds":90750,"freshness":"FRESH","line1":"1 66500U 25263R   26144.82776673  .00018253  00000+0  67093-3 0  9994","line2":"2 66500  43.0005 284.1417 0001098 262.4682  97.6044 15.27591466 30500","mean_motion":15.27591466,"eccentricity":0.0001098,"inclination_deg":43.0005,"raan_deg":284.1417,"arg_perigee_deg":262.4682,"mean_anomaly_deg":97.6044,"bstar":0.00067093,"rev_number":3050,"period_min":94.266041153702,"perigee_km":482.26140846196,"apogee_km":483.7681173891,"semimajor_km":6861.1517629255,"source":"CELESTRAK","updated_at":"2026-05-25T13:38:21.244958Z"}}}